Meteo pe oră la Dzieslawice

Astăzi, 2 Martie, Marţi

Timp Temperatura Precipitaţii Vânt Presiune Umiditate
00:00 -1°C° 0 mm 2 m/s 757 mmHg 92%
01:00 -1°C° 0 mm 2 m/s 757 mmHg 92%
02:00 -1°C° 0 mm 2 m/s 756 mmHg 92%
03:00 -1°C° 0 mm 2 m/s 756 mmHg 92%
04:00 -1°C° 0 mm 3 m/s 755 mmHg 92%
05:00 -1°C° 0 mm 3 m/s 755 mmHg 91%
06:00 0°C° 0 mm 3 m/s 755 mmHg 90%
07:00 0°C° 0 mm 3 m/s 755 mmHg 89%
08:00 +1°C° 0 mm 3 m/s 755 mmHg 81%
09:00 +3°C° 0 mm 4 m/s 755 mmHg 73%
10:00 +5°C° 0 mm 4 m/s 755 mmHg 66%
11:00 +6°C° 0 mm 4 m/s 755 mmHg 63%
12:00 +7°C° 0 mm 4 m/s 755 mmHg 60%
13:00 +10°C° 0 mm 4 m/s 755 mmHg 57%
14:00 +8°C° 0 mm 4 m/s 754 mmHg 59%
15:00 +8°C° 0 mm 4 m/s 754 mmHg 60%
16:00 +8°C° 0 mm 4 m/s 754 mmHg 62%
17:00 +7°C° 0 mm 4 m/s 754 mmHg 67%
18:00 +5°C° 0 mm 3 m/s 754 mmHg 73%
19:00 +4°C° 0 mm 3 m/s 754 mmHg 78%
20:00 +3°C° 0 mm 3 m/s 754 mmHg 81%
21:00 +4°C° 0 mm 2 m/s 754 mmHg 83%
22:00 +3°C° 0 mm 2 m/s 755 mmHg 85%
23:00 +3°C° 0 mm 2 m/s 755 mmHg 86%

Mâine, 3 Martie, Miercuri

Timp Temperatura Precipitaţii Vânt Presiune Umiditate
00:00 +2°C° 0 mm 2 m/s 755 mmHg 87%
01:00 +3°C° 0 mm 1 m/s 755 mmHg 87%
02:00 +3°C° 0 mm 1 m/s 754 mmHg 88%
03:00 +3°C° 0 mm 1 m/s 754 mmHg 88%
04:00 +2°C° 0 mm 1 m/s 753 mmHg 88%
05:00 +2°C° 0 mm 1 m/s 753 mmHg 88%
06:00 +2°C° 0 mm 1 m/s 753 mmHg 88%
07:00 +3°C° 0 mm 1 m/s 753 mmHg 88%
08:00 +4°C° 0 mm 1 m/s 753 mmHg 81%
09:00 +6°C° 0 mm 1 m/s 753 mmHg 74%
10:00 +8°C° 0 mm 1 m/s 753 mmHg 66%
11:00 +9°C° 0 mm 1 m/s 752 mmHg 62%
12:00 +9°C° 0 mm 2 m/s 752 mmHg 57%
13:00 +10°C° 0 mm 2 m/s 752 mmHg 52%
14:00 +11°C° 0 mm 1 m/s 751 mmHg 53%
15:00 +11°C° 0 mm 1 m/s 750 mmHg 55%
16:00 +11°C° 0 mm 1 m/s 749 mmHg 56%
17:00 +10°C° 0 mm 1 m/s 749 mmHg 60%
18:00 +8°C° 0 mm 2 m/s 749 mmHg 64%
19:00 +6°C° 0 mm 2 m/s 749 mmHg 67%
20:00 +6°C° 0 mm 2 m/s 748 mmHg 69%
21:00 +4°C° 0 mm 3 m/s 748 mmHg 71%
22:00 +4°C° 0 mm 3 m/s 747 mmHg 73%
23:00 +4°C° 0 mm 3 m/s 747 mmHg 76%

Poimâine, 4 Martie, Joi

Timp Temperatura Precipitaţii Vânt Presiune Umiditate
00:00 +3°C° 0 mm 3 m/s 747 mmHg 79%
01:00 +3°C° 0 mm 4 m/s 746 mmHg 82%
02:00 +3°C° 0 mm 4 m/s 746 mmHg 83%
03:00 +1°C° 0 mm 4 m/s 745 mmHg 84%
04:00 +1°C° 0 mm 4 m/s 744 mmHg 85%
05:00 +1°C° 0 mm 4 m/s 744 mmHg 85%
06:00 +1°C° 0 mm 4 m/s 744 mmHg 84%
07:00 +1°C° 0 mm 4 m/s 744 mmHg 84%
08:00 +4°C° 0 mm 4 m/s 743 mmHg 77%
09:00 +6°C° 0 mm 5 m/s 743 mmHg 70%
10:00 +8°C° 0 mm 6 m/s 742 mmHg 63%
11:00 +9°C° 0 mm 6 m/s 742 mmHg 61%
12:00 +10°C° 0 mm 6 m/s 741 mmHg 60%
13:00 +11°C° 0 mm 6 m/s 741 mmHg 58%
14:00 +10°C° 0 mm 5 m/s 740 mmHg 60%
15:00 +10°C° 0 mm 5 m/s 740 mmHg 62%
16:00 +11°C° 0 mm 4 m/s 739 mmHg 64%
17:00 +10°C° 0 mm 3 m/s 739 mmHg 68%
18:00 +9°C° 0 mm 3 m/s 739 mmHg 72%
19:00 +8°C° 0 mm 2 m/s 739 mmHg 76%
20:00 +8°C° 0.2 mm 2 m/s 739 mmHg 79%
21:00 +7°C° 0.2 mm 3 m/s 739 mmHg 83%
22:00 +7°C° 0.2 mm 3 m/s 738 mmHg 86%
23:00 +5°C° 0.8 mm 3 m/s 738 mmHg 88%

5 Martie, Vineri

Timp Temperatura Precipitaţii Vânt Presiune Umiditate
00:00 +5°C° 0.8 mm 3 m/s 738 mmHg 90%
01:00 +5°C° 0.8 mm 2 m/s 738 mmHg 92%
02:00 +3°C° 1.1 mm 3 m/s 738 mmHg 93%
03:00 +3°C° 1.1 mm 3 m/s 737 mmHg 94%
04:00 +1°C° 1.1 mm 4 m/s 737 mmHg 95%
05:00 +1°C° 0.4 mm 4 m/s 738 mmHg 95%
06:00 0°C° 0.4 mm 4 m/s 738 mmHg 95%
07:00 0°C° 0.4 mm 4 m/s 739 mmHg 95%
08:00 0°C° 0.1 mm 4 m/s 739 mmHg 91%
09:00 -1°C° 0.1 mm 4 m/s 740 mmHg 87%
10:00 -1°C° 0.1 mm 5 m/s 740 mmHg 82%
11:00 -1°C° 0 mm 5 m/s 741 mmHg 75%
12:00 0°C° 0 mm 5 m/s 741 mmHg 68%
13:00 0°C° 0 mm 5 m/s 742 mmHg 61%
14:00 0°C° 0 mm 5 m/s 742 mmHg 57%
15:00 0°C° 0 mm 4 m/s 743 mmHg 53%
16:00 0°C° 0 mm 4 m/s 743 mmHg 49%
17:00 -1°C° 0 mm 4 m/s 744 mmHg 52%
18:00 -1°C° 0 mm 3 m/s 745 mmHg 55%
19:00 -2°C° 0 mm 3 m/s 746 mmHg 59%
20:00 -2°C° 0 mm 3 m/s 746 mmHg 58%
21:00 -2°C° 0 mm 2 m/s 747 mmHg 57%
22:00 -2°C° 0 mm 2 m/s 747 mmHg 56%
23:00 -2°C° 0 mm 2 m/s 748 mmHg 57%

6 Martie, Sâmbătă

Timp Temperatura Precipitaţii Vânt Presiune Umiditate
00:00 -2°C° 0 mm 2 m/s 748 mmHg 57%
01:00 -2°C° 0 mm 2 m/s 748 mmHg 57%
02:00 -2°C° 0 mm 3 m/s 748 mmHg 61%
03:00 -2°C° 0 mm 3 m/s 749 mmHg 64%
04:00 -3°C° 0 mm 4 m/s 749 mmHg 68%
05:00 -4°C° 0 mm 5 m/s 750 mmHg 69%
06:00 -5°C° 0 mm 5 m/s 750 mmHg 70%
07:00 -5°C° 0 mm 6 m/s 751 mmHg 71%
08:00 -4°C° 0 mm 6 m/s 751 mmHg 63%
09:00 -3°C° 0 mm 6 m/s 751 mmHg 55%
10:00 -3°C° 0 mm 6 m/s 752 mmHg 46%
11:00 -1°C° 0 mm 5 m/s 752 mmHg 44%
12:00 -1°C° 0 mm 5 m/s 752 mmHg 42%
13:00 0°C° 0 mm 5 m/s 752 mmHg 40%
14:00 -1°C° 0 mm 5 m/s 752 mmHg 40%
15:00 -1°C° 0 mm 4 m/s 752 mmHg 40%
16:00 -1°C° 0 mm 4 m/s 752 mmHg 40%
17:00 -2°C° 0 mm 4 m/s 753 mmHg 46%
18:00 -2°C° 0 mm 3 m/s 753 mmHg 52%
19:00 -3°C° 0 mm 2 m/s 753 mmHg 58%
20:00 -4°C° 0 mm 3 m/s 753 mmHg 59%
21:00 -4°C° 0 mm 3 m/s 754 mmHg 60%
22:00 -4°C° 0 mm 3 m/s 754 mmHg 61%
23:00 -4°C° 0 mm 4 m/s 754 mmHg 61%

7 Martie, Duminică

Timp Temperatura Precipitaţii Vânt Presiune Umiditate
00:00 -3°C° 0 mm 4 m/s 753 mmHg 60%
01:00 -4°C° 0 mm 5 m/s 753 mmHg 60%
02:00 -4°C° 0 mm 5 m/s 753 mmHg 60%
03:00 -4°C° 0 mm 5 m/s 753 mmHg 60%
04:00 -4°C° 0 mm 5 m/s 752 mmHg 60%
05:00 -4°C° 0 mm 6 m/s 752 mmHg 59%
06:00 -4°C° 0 mm 6 m/s 752 mmHg 58%
07:00 -4°C° 0 mm 6 m/s 752 mmHg 57%
08:00 -3°C° 0 mm 7 m/s 751 mmHg 55%
09:00 -2°C° 0 mm 7 m/s 751 mmHg 54%
10:00 0°C° 0 mm 8 m/s 751 mmHg 52%
11:00 0°C° 0 mm 8 m/s 750 mmHg 52%
12:00 +2°C° 0 mm 7 m/s 750 mmHg 53%
13:00 +2°C° 0 mm 7 m/s 749 mmHg 53%
14:00 +2°C° 0 mm 7 m/s 749 mmHg 55%
15:00 +2°C° 0 mm 6 m/s 748 mmHg 56%
16:00 +2°C° 0 mm 6 m/s 747 mmHg 58%
17:00 0°C° 0 mm 5 m/s 747 mmHg 62%
18:00 -1°C° 0 mm 5 m/s 747 mmHg 67%
19:00 -2°C° 0 mm 4 m/s 746 mmHg 72%
20:00 -2°C° 0 mm 5 m/s 746 mmHg 72%
21:00 -2°C° 0 mm 5 m/s 746 mmHg 72%
22:00 -2°C° 0 mm 5 m/s 746 mmHg 73%
23:00 -2°C° 0 mm 5 m/s 745 mmHg 73%
Arată mai mult

Formular de consimțământ

Meteoprog și furnizorii noștri de servicii pot stoca și accesa date personale, precum cookies, identificatori de dispozitiv sau alte tehnologii similare pe dispozitivul dumneavoastră și procesa astfel de date pentru a personaliza conținutul și reclamele, dar și pentru a oferi caracteristici de social media și pentru a analiza traficul.

  • Stocarea și/sau accesarea informațiilor pe dispozitivul dumneavoastră

    Cookies, identificatori de dispozitiv sau alte informații pot fi stocate sau accesate pe dispozitiv în scopurile indicate mai sus.

  • Reclame și conținut personalizat, evaluarea reclamelor și a conținutului, informații despre audiențe și dezvoltarea produselor

    Reclamele și conținutul pot fi personalizate pe baza unui profil. Pot fi adăugate date suplimentare pentru a personaliza mai bine reclamele și conținutul. Performanța reclamelor și conținutului poate fi măsurată. Pot fi obținute informații despre utilizatorii care au văzut reclamele și conținutul. Aceste date pot fi utilizate pentru a dezvolta sau îmbunătăți experiența utilizatorilor, sistemele și software-ul.

Dând clic pe ‘Sunt de acord’, permiteți utilizarea cookie-urilor menționate, a identificatorilor de dispozitiv, balizelor web sau altor tehnologii similare. Setările pot fi modificate din browser-ul dispozitivului dumneavoastră.

În anumite scopuri, interesele legitime pot prima asupra consimțământului. Puteți citi mai multe informații în acest sens în Politica privind Confidențialitatea Datelor și Cookie.